Weather in Bachatsky

Russia / Kemerovo Oblast     54°17′04″N   86°06′12″E
temp.,
°C
wind,
m/s
gust,
m/s
humid.,
%
clouds,
%
prec.,
mm/h
press.,
hPa
HPBL,
m
16 may, sun
sun1601:00+14wsw5146189 0.4 1017341
04:00+12sw5136955 0.4 1016261
07:00+13wsw5137016 0.8 1016372
10:00+17sw510579 0.4 1014525
13:00+24wsw694265 0.6 10121613
16:00+25w6113986 0.0 10103056
19:00+16nne3779100 0.3 1011311
22:00+13wsw2896100 4.3 1012253
17 may, mon
mon1701:00+13sw2694100 7.8 1012252
04:00+13wsw2796100 1.5 1011346
07:00+12nw2496100 4.4 1012268
10:00+14n357675 0.0 1014686
13:00+18nnw455491 0.0 10141207
16:00+20nnw4647100 0.0 10131852
19:00+17nnw455841 0.0 10141166
22:00+12wsw118116 0.0 101511
18 may, tue
tue1801:00+11ssw348581 0.0 101458
04:00+12sw41184100 0.3 1012335
07:00+13sw7168194 1.0 1009614
10:00+17sw7137194 0.1 1006548
13:00+24wsw8144473 0.1 10041900
16:00+25wnw816436 0.0 10013001
19:00+21nw7125717 0.1 10021480
22:00+15nw4108273 0.1 1004364
19 may, wed
wed1901:00+12nw259750 0.1 1005153
04:00+10n2597100 0.0 1005297
07:00+9nne4696100 2.5 1005444
10:00+7nne61096100 4.6 1006663
13:00+8nne61072100 8.1 1007996
16:00+9n7950100 0.1 10091529
19:00+8n61050100 0.1 10111744
22:00+5n5115147 0.0 1014606
20 may, thu
thu2001:00+2nw22645 0.0 101524
04:000wnw226888 0.0 101627
07:00+3nnw2458100 0.0 1017367
10:00+5nnw4740100 0.1 10182387
13:00+6nnw5639100 0.1 10182320
16:00+7nnw5736100 0.0 10182739
19:00+7nnw463357 0.1 10202182
22:00+2wsw225127 0.0 102122